Location: Ellerstadt
(49.4644°N, 8.2615°E)
Time: 02:11:33
(UTC+00:00)

Cosmos 2341 Rocket - Pass Details

Date: 03 March 2021
Orbit: 968 x 1005 km, 82.9° (Epoch: 16 April)

Event Time Altitude Azimuth Distance (km) Brightness Sun altitude
Rises 18:29:45 0° 173° (S) 3,698 6.9 -13.2°
Reaches altitude 10° 18:32:18 10° 169° (S) 2,748 6.2 -13.6°
Maximum altitude 18:38:26 58° 93° (E) 1,147 4.0 -14.6°
Drops below altitude 10° 18:44:34 10° 16° (NNE) 2,742 6.3 -15.6°
Sets 18:47:07 0° 13° (NNE) 3,689 7.0 -16.0°
